Time,TemperatureF,DewpointF,PressureIn,WindDirection,WindDirectionDegrees,WindSpeedMPH,WindSpeedGustMPH,Humidity,HourlyPrecipIn,Conditions,Clouds,dailyrainin,SoftwareType,DateUTC
2013-04-04 00:14:00,28.9,19.0,30.43,WSW,240,5.0,-999.0,67,-99.99,,,0.00,weatherlink.com 1.10,2013-04-04 04:14:00,
2013-04-04 00:29:00,28.3,20.0,30.42,West,280,4.0,-999.0,70,-99.99,,,0.00,weatherlink.com 1.10,2013-04-04 04:29:00,
2013-04-04 00:44:00,28.4,20.0,30.41,WSW,246,2.0,-999.0,70,-99.99,,,0.00,weatherlink.com 1.10,2013-04-04 04:44:00,
2013-04-04 00:59:00,28.4,20.0,30.41,West,259,0.0,-999.0,70,-99.99,,,0.00,weatherlink.com 1.10,2013-04-04 04:59:00,
2013-04-04 01:14:00,28.4,19.0,30.41,West,259,3.0,-999.0,69,-99.99,,,0.00,weatherlink.com 1.10,2013-04-04 05:14:00,
2013-04-04 01:29:00,28.1,19.0,30.40,SW,221,2.0,-999.0,70,-99.99,,,0.00,weatherlink.com 1.10,2013-04-04 05:29:00,
2013-04-04 01:44:00,28.0,19.0,30.40,SW,230,2.0,-999.0,70,-99.99,,,0.00,weatherlink.com 1.10,2013-04-04 05:44:00,
2013-04-04 01:59:00,27.9,19.0,30.40,SW,227,2.0,-999.0,70,-99.99,,,0.00,weatherlink.com 1.10,2013-04-04 05:59:00,
2013-04-04 02:14:00,28.0,19.0,30.40,SW,230,2.0,-999.0,70,-99.99,,,0.00,weatherlink.com 1.10,2013-04-04 06:14:00,
2013-04-04 02:29:00,28.3,19.0,30.40,WSW,258,4.0,-999.0,69,-99.99,,,0.00,weatherlink.com 1.10,2013-04-04 06:29:00,
2013-04-04 02:44:00,28.0,19.0,30.40,SW,234,2.0,-999.0,69,-99.99,,,0.00,weatherlink.com 1.10,2013-04-04 06:44:00,
2013-04-04 02:59:00,27.8,19.0,30.41,SW,227,3.0,-999.0,70,-99.99,,,0.00,weatherlink.com 1.10,2013-04-04 06:59:00,
2013-04-04 03:14:00,27.6,19.0,30.40,WSW,241,0.0,-999.0,69,-99.99,,,0.00,weatherlink.com 1.10,2013-04-04 07:14:00,
2013-04-04 03:29:00,27.6,19.0,30.40,West,275,0.0,-999.0,69,-99.99,,,0.00,weatherlink.com 1.10,2013-04-04 07:29:00,
2013-04-04 03:44:00,27.8,18.0,30.40,West,260,2.0,-999.0,68,-99.99,,,0.00,weatherlink.com 1.10,2013-04-04 07:44:00,
2013-04-04 03:59:00,27.6,18.0,30.40,SW,221,3.0,-999.0,68,-99.99,,,0.00,weatherlink.com 1.10,2013-04-04 07:59:00,
2013-04-04 04:14:00,27.1,18.0,30.41,SW,221,0.0,-999.0,69,-99.99,,,0.00,weatherlink.com 1.10,2013-04-04 08:14:00,
2013-04-04 04:29:00,27.3,18.0,30.41,WSW,257,0.0,-999.0,69,-99.99,,,0.00,weatherlink.com 1.10,2013-04-04 08:29:00,
2013-04-04 04:44:00,27.0,18.0,30.41,SW,215,0.0,-999.0,69,-99.99,,,0.00,weatherlink.com 1.10,2013-04-04 08:44:00,
2013-04-04 04:59:00,27.0,18.0,30.40,WSW,248,3.0,-999.0,69,-99.99,,,0.00,weatherlink.com 1.10,2013-04-04 08:59:00,
2013-04-04 05:14:00,26.8,18.0,30.40,WSW,248,0.0,-999.0,69,-99.99,,,0.00,weatherlink.com 1.10,2013-04-04 09:14:00,
2013-04-04 05:29:00,26.8,18.0,30.40,WSW,248,0.0,-999.0,69,-99.99,,,0.00,weatherlink.com 1.10,2013-04-04 09:29:00,
2013-04-04 05:44:00,26.7,18.0,30.40,WSW,248,0.0,-999.0,69,-99.99,,,0.00,weatherlink.com 1.10,2013-04-04 09:44:00,
2013-04-04 05:59:00,27.2,18.0,30.40,WSW,248,0.0,-999.0,69,-99.99,,,0.00,weatherlink.com 1.10,2013-04-04 09:59:00,
2013-04-04 06:14:00,27.4,19.0,30.39,WSW,248,1.0,-999.0,71,-99.99,,,0.00,weatherlink.com 1.10,2013-04-04 10:14:00,
2013-04-04 06:30:00,27.5,19.0,30.38,WSW,248,0.0,-999.0,71,-99.99,,,0.00,weatherlink.com 1.10,2013-04-04 10:30:00,
2013-04-04 06:45:00,27.5,20.0,30.38,WSW,248,0.0,-999.0,72,-99.99,,,0.00,weatherlink.com 1.10,2013-04-04 10:45:00,
2013-04-04 07:00:00,27.8,20.0,30.38,WSW,248,0.0,-999.0,73,-99.99,,,0.00,weatherlink.com 1.10,2013-04-04 11:00:00,
2013-04-04 07:15:00,28.2,21.0,30.38,WSW,248,0.0,-999.0,74,-99.99,,,0.00,weatherlink.com 1.10,2013-04-04 11:15:00,
2013-04-04 07:30:00,29.2,23.0,30.38,SW,236,2.0,-999.0,76,-99.99,,,0.00,weatherlink.com 1.10,2013-04-04 11:30:00,
2013-04-04 07:45:00,29.9,24.0,30.38,West,271,7.0,-999.0,77,-99.99,,,0.00,weatherlink.com 1.10,2013-04-04 11:45:00,
2013-04-04 08:00:00,30.6,24.0,30.38,WSW,258,3.0,-999.0,77,-99.99,,,0.00,weatherlink.com 1.10,2013-04-04 12:00:00,
2013-04-04 08:15:00,31.4,25.0,30.38,WSW,245,10.0,-999.0,77,-99.99,,,0.00,weatherlink.com 1.10,2013-04-04 12:15:00,
2013-04-04 08:30:00,32.3,26.0,30.38,WSW,242,5.0,-999.0,76,-99.99,,,0.00,weatherlink.com 1.10,2013-04-04 12:30:00,
2013-04-04 08:45:00,33.1,25.0,30.38,WSW,253,6.0,-999.0,73,-99.99,,,0.00,weatherlink.com 1.10,2013-04-04 12:45:00,
2013-04-04 09:00:00,33.8,25.0,30.37,SW,233,3.0,-999.0,71,-99.99,,,0.00,weatherlink.com 1.10,2013-04-04 13:00:00,
2013-04-04 09:15:00,34.7,25.0,30.36,SSW,213,9.0,-999.0,67,-99.99,,,0.00,weatherlink.com 1.10,2013-04-04 13:15:00,
2013-04-04 09:30:00,35.3,25.0,30.35,SSW,204,5.0,-999.0,66,-99.99,,,0.00,weatherlink.com 1.10,2013-04-04 13:30:00,
2013-04-04 09:45:00,35.9,25.0,30.34,SSW,207,3.0,-999.0,66,-99.99,,,0.00,weatherlink.com 1.10,2013-04-04 13:45:00,
2013-04-04 10:00:00,36.5,25.0,30.32,SSW,202,18.0,-999.0,63,-99.99,,,0.00,weatherlink.com 1.10,2013-04-04 14:00:00,
2013-04-04 10:15:00,37.4,24.0,30.31,SSW,202,16.0,-999.0,58,-99.99,,,0.00,weatherlink.com 1.10,2013-04-04 14:15:00,
2013-04-04 10:30:00,38.3,25.0,30.31,SW,234,7.0,-999.0,58,-99.99,,,0.00,weatherlink.com 1.10,2013-04-04 14:30:00,
2013-04-04 10:45:00,38.7,24.0,30.30,SW,227,6.0,-999.0,55,-99.99,,,0.00,weatherlink.com 1.10,2013-04-04 14:45:00,
2013-04-04 11:00:00,39.6,24.0,30.30,SSE,158,4.0,-999.0,55,-99.99,,,0.00,weatherlink.com 1.10,2013-04-04 15:00:00,
2013-04-04 11:15:00,40.5,23.0,30.29,WSW,257,8.0,-999.0,51,-99.99,,,0.00,weatherlink.com 1.10,2013-04-04 15:15:00,
2013-04-04 11:30:00,40.7,25.0,30.28,West,275,6.0,-999.0,53,-99.99,,,0.00,weatherlink.com 1.10,2013-04-04 15:30:00,
2013-04-04 11:45:00,41.0,23.0,30.27,SW,232,0.0,-999.0,49,-99.99,,,0.00,weatherlink.com 1.10,2013-04-04 15:45:00,
2013-04-04 12:01:00,41.6,25.0,30.25,SW,217,10.0,-999.0,51,-99.99,,,0.00,weatherlink.com 1.10,2013-04-04 16:01:00,
2013-04-04 12:16:00,41.9,23.0,30.24,WNW,284,6.0,-999.0,48,-99.99,,,0.00,weatherlink.com 1.10,2013-04-04 16:16:00,
2013-04-04 12:31:00,41.9,22.0,30.23,SSW,209,8.0,-999.0,46,-99.99,,,0.00,weatherlink.com 1.10,2013-04-04 16:31:00,
2013-04-04 13:01:00,44.1,22.0,30.21,SSW,204,12.0,-999.0,42,-99.99,,,0.00,weatherlink.com 1.10,2013-04-04 17:01:00,
2013-04-04 13:16:00,44.3,22.0,30.20,SW,217,3.0,-999.0,42,-99.99,,,0.00,weatherlink.com 1.10,2013-04-04 17:16:00,
2013-04-04 13:46:00,46.7,22.0,30.18,SSW,202,9.0,-999.0,38,-99.99,,,0.00,weatherlink.com 1.10,2013-04-04 17:46:00,
2013-04-04 14:01:00,46.2,19.0,30.17,SSW,205,10.0,-999.0,34,-99.99,,,0.00,weatherlink.com 1.10,2013-04-04 18:01:00,
2013-04-04 14:16:00,46.3,16.0,30.15,WSW,245,11.0,-999.0,30,-99.99,,,0.00,weatherlink.com 1.10,2013-04-04 18:16:00,
2013-04-04 14:46:00,47.5,15.0,30.13,South,190,5.0,-999.0,27,-99.99,,,0.00,weatherlink.com 1.10,2013-04-04 18:46:00,
2013-04-04 15:01:00,47.4,10.0,30.12,South,173,11.0,-999.0,22,-99.99,,,0.00,weatherlink.com 1.10,2013-04-04 19:01:00,
2013-04-04 15:16:00,48.0,11.0,30.11,SW,216,4.0,-999.0,22,-99.99,,,0.00,weatherlink.com 1.10,2013-04-04 19:16:00,
2013-04-04 15:31:00,48.5,10.0,30.11,South,181,11.0,-999.0,21,-99.99,,,0.00,weatherlink.com 1.10,2013-04-04 19:31:00,
2013-04-04 15:46:00,49.1,9.0,30.11,SSW,200,9.0,-999.0,20,-99.99,,,0.00,weatherlink.com 1.10,2013-04-04 19:46:00,
2013-04-04 16:02:00,49.7,8.0,30.09,WSW,248,16.0,-999.0,18,-99.99,,,0.00,weatherlink.com 1.10,2013-04-04 20:02:00,
2013-04-04 16:17:00,49.9,5.0,30.09,WSW,246,10.0,-999.0,16,-99.99,,,0.00,weatherlink.com 1.10,2013-04-04 20:17:00,
2013-04-04 16:47:00,50.3,7.0,30.08,WSW,246,10.0,-999.0,17,-99.99,,,0.00,weatherlink.com 1.10,2013-04-04 20:47:00,
2013-04-04 17:02:00,50.5,9.0,30.07,West,263,12.0,-999.0,19,-99.99,,,0.00,weatherlink.com 1.10,2013-04-04 21:02:00,
2013-04-04 17:17:00,51.0,12.0,30.07,WSW,247,10.0,-999.0,21,-99.99,,,0.00,weatherlink.com 1.10,2013-04-04 21:17:00,
2013-04-04 17:32:00,51.0,11.0,30.06,WSW,255,12.0,-999.0,20,-99.99,,,0.00,weatherlink.com 1.10,2013-04-04 21:32:00,
2013-04-04 17:47:00,51.4,14.0,30.05,West,262,9.0,-999.0,22,-99.99,,,0.00,weatherlink.com 1.10,2013-04-04 21:47:00,
2013-04-04 18:02:00,51.4,17.0,30.04,West,275,15.0,-999.0,25,-99.99,,,0.00,weatherlink.com 1.10,2013-04-04 22:02:00,
2013-04-04 18:17:00,50.9,14.0,30.03,West,274,12.0,-999.0,23,-99.99,,,0.00,weatherlink.com 1.10,2013-04-04 22:17:00,
2013-04-04 18:32:00,50.7,12.0,30.03,SSW,210,3.0,-999.0,21,-99.99,,,0.00,weatherlink.com 1.10,2013-04-04 22:32:00,
2013-04-04 18:47:00,50.7,13.0,30.02,SSW,196,8.0,-999.0,22,-99.99,,,0.00,weatherlink.com 1.10,2013-04-04 22:47:00,
2013-04-04 19:02:00,50.4,14.0,30.02,WNW,284,6.0,-999.0,23,-99.99,,,0.00,weatherlink.com 1.10,2013-04-04 23:02:00,
2013-04-04 19:17:00,49.9,15.0,30.01,SW,232,0.0,-999.0,25,-99.99,,,0.00,weatherlink.com 1.10,2013-04-04 23:17:00,
2013-04-04 19:32:00,48.9,14.0,30.00,SW,232,2.0,-999.0,25,-99.99,,,0.00,weatherlink.com 1.10,2013-04-04 23:32:00,
2013-04-04 19:47:00,47.9,14.0,30.00,WSW,247,4.0,-999.0,26,-99.99,,,0.00,weatherlink.com 1.10,2013-04-04 23:47:00,
2013-04-04 20:02:00,46.8,14.0,30.00,WSW,244,3.0,-999.0,27,-99.99,,,0.00,weatherlink.com 1.10,2013-04-05 00:02:00,
2013-04-04 20:17:00,45.9,14.0,30.00,SW,227,3.0,-999.0,28,-99.99,,,0.00,weatherlink.com 1.10,2013-04-05 00:17:00,
2013-04-04 20:32:00,45.0,15.0,30.01,SW,221,0.0,-999.0,30,-99.99,,,0.00,weatherlink.com 1.10,2013-04-05 00:32:00,
2013-04-04 20:47:00,45.1,14.0,30.01,WSW,237,0.0,-999.0,29,-99.99,,,0.00,weatherlink.com 1.10,2013-04-05 00:47:00,
2013-04-04 21:02:00,45.1,14.0,30.01,West,264,4.0,-999.0,29,-99.99,,,0.00,weatherlink.com 1.10,2013-04-05 01:02:00,
2013-04-04 21:17:00,44.3,14.0,30.01,WSW,252,1.0,-999.0,29,-99.99,,,0.00,weatherlink.com 1.10,2013-04-05 01:17:00,
2013-04-04 21:32:00,43.6,14.0,30.00,WSW,252,1.0,-999.0,30,-99.99,,,0.00,weatherlink.com 1.10,2013-04-05 01:32:00,
2013-04-04 21:47:00,42.2,15.0,30.00,WSW,249,2.0,-999.0,33,-99.99,,,0.00,weatherlink.com 1.10,2013-04-05 01:47:00,
2013-04-04 22:02:00,41.7,14.0,29.99,SSW,192,6.0,-999.0,33,-99.99,,,0.00,weatherlink.com 1.10,2013-04-05 02:02:00,
2013-04-04 22:17:00,40.3,18.0,29.98,SSE,158,9.0,-999.0,41,-99.99,,,0.00,weatherlink.com 1.10,2013-04-05 02:17:00,
2013-04-04 22:32:00,38.0,21.0,29.98,South,176,2.0,-999.0,50,-99.99,,,0.00,weatherlink.com 1.10,2013-04-05 02:32:00,
2013-04-04 22:47:00,36.8,21.0,29.98,South,186,5.0,-999.0,54,-99.99,,,0.00,weatherlink.com 1.10,2013-04-05 02:47:00,
2013-04-04 23:02:00,36.6,22.0,29.97,WSW,246,3.0,-999.0,55,-99.99,,,0.00,weatherlink.com 1.10,2013-04-05 03:02:00,
2013-04-04 23:17:00,37.1,22.0,29.97,SSW,201,4.0,-999.0,55,-99.99,,,0.00,weatherlink.com 1.10,2013-04-05 03:17:00,
2013-04-04 23:32:00,37.0,23.0,29.96,SSW,210,0.0,-999.0,58,-99.99,,,0.00,weatherlink.com 1.10,2013-04-05 03:32:00,
2013-04-04 23:47:00,36.6,24.0,29.96,SW,236,4.0,-999.0,60,-99.99,,,0.00,weatherlink.com 1.10,2013-04-05 03:47:00,